Powrót do katalogu

KUIPER-00516

AktywnyŁącznośćVLEO
NORAD 69599·PAYLOAD·🇺🇸 United States

Wystrzelony Jun 17, 2026 z Guiana Space Centre

Loading…

Następne Przeloty (najbliższe 24 godziny)

TLE

ŚwieżeSource: CelesTrak SupGP

Epoka: Sep 14, 2026, 16:15 UTC

1 69599C 26140H   26257.67710648 -.01265700  00000+0 -58730-1 0  2575
2 69599  51.8823 326.6707 0006739 195.0255 125.9781 15.20738361    10

Śledź KUIPER-00516 w czasie rzeczywistym z AllMySat

Download on the App Store